CZ-6A DEB, 56640

Orbit data source: Space-Track

CZ-6A DEB, 56640 is space debris in SSO originally from a launch on Fri, 11 Nov 2022 UTC launched from the Taiyaun Space Center, China (TSC). Debris objects in space refer to the collection of defunct objects orbiting the Earth. Examples of debris include non-operational satellites, rocket bodies, and fragments generated from explosions, collisions, or faulty payload assembly.

Loading next visibility...
Identifier
56640, 2022-151AFQ
Orbit
SSO
Country
Flag of CNCN / PRC
Related business
Manufacturer
SAST
Mission
Spacecraft
Bus & Motor
Unknown
Mass
Unknown
Launch date (UTC)
2022-11-11 (4 years ago)
Launch vehicle
Unknown
Launch site
Taiyaun Space Center, China (TSC)
Object type
Payload
Rocket body
Debris
Shape & HBR
Unknown shape, 0.1 m
Radar Cross Section
Medium (>0.1 m² and <1 m²)

Expand to show TLE details & history
Last TLE update: 3 days ago

TLE from 3 days ago
0 CZ-6A DEB
1 56640U 22151AFQ 26170.61175856  .00000778  00000-0  56778-3 0  9995
2 56640  98.7969 121.2834 0134148  69.3402 292.2085 13.94658827165213
Epoch: 2026-06-19T14:40Z
TLE epoch observation values (Epoch: 2026-06-19T14:40:55.939Z)
Latitude
-0.00002°
Longitude
-6.78792°
Altitude
879.387 km
Speed
7.431 km/s
True Right ascension
08h 05m 08s
True Declination
0° 00' 00"
Sunlit
Object was in daylight at epoch
Visualization orbit readout
Latitude
Unknown
Longitude
Unknown
Altitude
Unknown
Speed
Unknown
Apparent Right ascension
Unknown
Apparent Declination
Unknown
Sunlit
N/A
Visualization observer readout
Local Sidereal Time
21:32:08
Azimuth
Unknown
Elevation
Unknown
Doppler factor
Unknown
Orbital elements
Apogee altitude
1,007.308 km
Perigee altitude
811.783 km
Semi-major axis
7,287.683 km
Eccentricity
0.01341
Inclination
98.7969°
RAAN
121.2834°
Arg. of periapsis
69.3402°
True anomaly
290.77639°
Mean anomaly
292.2085°
Eccentric anomaly
291.49334°
Mean motion
3.48866 °/min
Orbital period
103.19 mins
BSTAR
0.00056778
Loading maneuver chart data...
Computing Atmospheric mass density...
Loading historical data...
Loading historical data...
Loading historical data...
Loading historical data...
Loading historical data...
Loading historical data...
Loading historical data...

Documentation

Showing up to 5 results
|